Flag for India Weather past 2 weeks in Sawai Madhopur, Rajasthan, India

Now
90 °F

Scattered clouds.


Feels Like: 103 °F
Forecast: 81 / 95 °F
Wind: 6 mph from East

Location: Jaipur / Sanganer

Current Time: Jul 30, 2014 at 2:50:36 PM

Latest Report: Jul 30, 2014 at 2:00 PM


Visibility: 2 mi

Pressure: 29.59 "Hg

Humidity: 67%

Dew point: 77 °F

Location of Sawai MadhopurLocation

Historic Weather in Sawai Madhopur — Graph

°F

Sawai Madhopur temperature yesterday

Maximum temperature yesterday: 90 °F (at 2:00 PM)
Minimum temperature yesterday: 77 °F (at 12:00 AM)
Average temperature yesterday: 83 °F

Past Weeks' High & Low Weather Summary

 TemperatureHumidityPressure
High97 °F (Jul 15, 3:00 PM)100% (Jul 17, 3:00 AM)29.74 "Hg (Jul 17, 3:00 AM)
Low75 °F (Jul 21, 1:00 AM)49% (Jul 21, 6:00 PM)29.42 "Hg (Jul 15, 6:00 PM)
Average85 °F74%29.56 "Hg
* Reported Jul 15 1:00 PM — Jul 30 1:00 PM, Sawai Madhopur, Weather by CustomWeather, © 2014

Note: Actual official high and low records may vary slightly from our data, if they occured in-between our weather recording intervals... More about our weather records

Advertising

Sawai Madhopur weather history for previous 24 hours

 ConditionsComfort  
Time TempWeatherWind HumidityBarometerVisibility
1:00 PM
Jul 30
86 °FScattered clouds.10 mph79%29.62 "Hg2 mi
12:00 PM88 °FScattered clouds.6 mph75%29.62 "Hg2 mi
11:00 AM88 °FScattered clouds.9 mph70%29.62 "Hg2 mi
10:00 AM88 °FScattered clouds.8 mph75%29.65 "Hg2 mi
9:00 AM86 °FFog.8 mph79%29.65 "Hg2 mi
8:00 AM82 °FFog.8 mph89%29.62 "Hg2 mi
7:00 AM81 °FFog.6 mph89%29.62 "Hg2 mi
6:00 AM79 °FFog.5 mph94%29.59 "Hg2 mi
5:00 AM79 °FFog.1 mph94%29.56 "Hg2 mi
4:00 AM77 °FFog.No wind94%29.56 "Hg2 mi
3:00 AM81 °FFog.3 mph84%29.59 "Hg2 mi
1:00 AM81 °FFog.6 mph89%29.62 "Hg2 mi
12:00 AM81 °FFog.3 mph89%29.62 "Hg2 mi
11:00 PM
Jul 29
82 °FFog.3 mph84%29.59 "Hg2 mi
10:00 PM82 °FFog.2 mph84%29.59 "Hg2 mi
9:00 PM82 °FFog.3 mph84%N/A2 mi
8:00 PM84 °FPartly cloudy.No wind79%29.56 "Hg2 mi
7:00 PM84 °FBroken clouds.6 mph74%29.56 "Hg2 mi
6:00 PM90 °FBroken clouds.5 mph63%29.53 "Hg2 mi
5:00 PM90 °FBroken clouds.6 mph59%29.53 "Hg2 mi
4:00 PM90 °FBroken clouds.3 mph63%29.53 "Hg2 mi
3:00 PM86 °FBroken clouds.9 mph70%29.56 "Hg2 mi
2:00 PM90 °FBroken clouds.7 mph63%29.56 "Hg2 mi
Weather by CustomWeather, © 2014

See weather overviewHow to use our weather pages